STARLINK-34556

Last updated on Sat Aug 02 2025 00:02:05 GMT+0000 (Coordinated Universal Time)

1 64733U 25144K 25213.58335648 .00069587 00000+0 17375-2 0 9993 2 64733 53.1597 124.8987 0001550 77.6832 211.1854 15.39554903 6099
UTC large
Height (km)
Speed (km/s)
/
Latitude / Longitude
Inclination (degrees)
Orbital Period (minutes)
Azimuth
Elevation
Range (km)
Doppler Factor

Next 0 passes for location: London (51.5072 / 0.1276)

Sorry there are no passes over London.